MILESOVKA Weather Reports


time (UTC)temp
F
wind
direction
speed
knots
gust
knots
rain 1hr
in
rain 24hr
in
rain mn
in
humidity
%
barometer
mb
20260506071745 50 250 19.1 28.7 0.00 0.00 0.00 99
20260506061746 48 250 22.6 0.0 0.00 0.00 0.00 99
20260506041944 46 240 19.1 0.0 0.00 0.00 0.00 99
20260506031746 48 220 19.1 0.0 0.00 0.00 0.00 99
20260506021745 48 240 17.4 0.0 0.00 0.00 0.00 99
20260506011846 48 240 15.6 0.0 0.00 0.00 0.00 99
20260506001744 50 250 12.2 0.0 0.00 0.00 0.00 93
20260505231745 50 270 10.4 0.0 0.00 0.00 0.00 93
20260505221745 48 260 31.3 0.0 0.00 0.00 0.00 99
20260505211801 48 260 39.1 0.0 0.00 0.00 0.00 99
20260505201800 55 40 13.9 0.0 0.00 0.00 0.00 93
20260505191817 55 40 13.9 22.6 0.00 0.00 0.00 93
20260505181802 57 20 20.9 0.0 0.00 0.00 0.00 87
20260505171745 57 10 20.9 0.0 0.00 0.00 0.00 87
20260505161845 61 20 15.6 0.0 0.00 0.00 0.00 82
20260505151744 64 10 15.6 25.2 0.00 0.00 0.00 72
20260505121744 68 30 7.8 0.0 0.00 0.00 0.00 60
20260505111745 68 30 6.1 0.0 0.00 0.00 0.00 60
20260505101745 64 30 7.8 0.0 0.00 0.00 0.00 63
20260505092606 63 10 7.8 0.0 0.00 0.00 0.00 67
20260505091744 63 10 7.8 0.0 0.00 0.00 0.00 67
20260505081745 61 20 7.8 0.0 0.00 0.00 0.00 67